Volver al catálogo

STARLINK-35725

ActivoComunicacionesSSO
NORAD 67565·PAYLOAD·🇺🇸 United States

Lanzado Jan 25, 2026 desde Vandenberg Space Force Base

Loading…

Próximos Pases (próximas 24 horas)

TLE

ActualizadoSource: CelesTrak SupGP

Época: Sep 14, 2026, 21:34 UTC

1 67565C 26016E   26257.89909722 -.00013467  00000+0 -41809-3 0  2576
2 67565  97.2848 316.5949 0001005  87.6508 105.8271 15.33443428    18

Sigue STARLINK-35725 en tiempo real con AllMySat

Download on the App Store